Total_Precipitation_Accumulation
1.75 1.91 1.78 1.59 1.56 1.52 1.77 2.13 2.37 2.13 1.87 1.70 1.62 1.63 1.68 1.72 1.94 1.80 1.84 1.82 1.62 1.43 1.29 1.21 1.17 1.13 1.11 1.17 1.26 1.29 1.32 1.42 1.63 1.86 2.08 2.38 2.69 3.00
1.96 1.94 1.82 1.65 1.73 1.57 1.63 1.93 2.18 2.32 2.09 1.56 1.59 1.58 1.68 1.55 1.82 1.71 1.83 1.82 1.59 1.45 1.30 1.22 1.14 1.10 1.07 1.08 1.15 1.23 1.26 1.24 1.31 1.43 1.55 1.67 1.80 2.00
2.11 2.03 1.96 1.94 1.93 1.78 1.80 1.91 1.99 2.20 2.15 1.72 1.63 1.75 1.85 1.78 1.85 1.80 1.74 1.77 1.60 1.54 1.33 1.20 1.12 1.07 1.07 1.05 1.06 1.06 1.10 1.11 1.13 1.19 1.27 1.33 1.36 1.40
2.46 2.54 2.30 2.22 2.18 2.01 1.97 1.93 1.96 2.14 2.15 2.01 1.90 1.94 1.97 1.90 1.89 1.75 1.51 1.44 1.47 1.58 1.45 1.28 1.17 1.09 1.03 1.02 1.02 1.00 1.00 1.02 1.07 1.08 1.11 1.15 1.20 1.22
2.34 2.55 2.53 2.63 2.38 2.32 2.20 2.08 2.02 1.98 2.13 2.03 1.89 2.08 2.08 2.06 1.97 1.66 1.54 1.54 1.39 1.57 1.54 1.30 1.17 1.11 1.03 0.98 0.94 0.94 0.94 0.96 0.99 1.02 1.03 1.01 1.02 1.04
2.11 2.21 2.32 2.58 2.56 2.55 2.35 2.31 2.31 2.28 2.35 2.25 2.13 2.23 2.40 2.43 2.27 1.90 1.77 1.67 1.53 1.36 1.45 1.30 1.22 1.16 1.06 0.98 0.94 0.90 0.91 0.92 0.94 0.95 0.99 1.00 0.98 0.94
2.14 2.10 2.08 2.30 2.37 2.37 2.14 2.22 2.37 2.41 2.43 2.38 2.35 2.41 2.46 2.57 2.27 2.02 1.87 1.83 1.74 1.53 1.44 1.25 1.20 1.12 1.13 1.15 1.09 1.00 0.94 0.93 0.95 0.97 0.97 0.96 0.97 1.00
2.39 2.31 2.17 2.10 2.09 2.13 2.16 2.19 2.27 2.25 2.27 2.30 2.26 2.29 2.35 2.45 2.56 2.40 2.17 1.99 1.81 1.60 1.61 1.42 1.32 1.25 1.14 1.05 1.15 1.12 1.03 0.96 0.93 0.94 0.96 0.98 0.98 0.96
2.33 2.31 2.05 1.90 2.06 1.98 2.13 2.15 2.00 1.93 1.90 1.99 2.00 2.03 2.42 2.69 2.94 2.66 2.43 2.22 1.95 1.80 1.73 1.48 1.35 1.26 1.13 1.08 1.19 1.06 0.98 0.93 0.90 0.90 0.91 0.93 0.95 0.96
1.95 2.06 2.00 1.91 1.92 1.99 1.93 1.72 1.57 1.56 1.58 1.50 1.54 1.75 2.13 2.64 2.92 2.91 2.85 2.60 2.29 1.93 1.70 1.46 1.24 1.17 1.10 1.08 1.21 1.13 1.02 0.95 0.90 0.87 0.82 0.83 0.87 0.92
1.73 1.73 1.76 1.66 1.75 1.82 1.72 1.52 1.40 1.34 1.36 1.37 1.36 1.51 1.77 2.10 2.48 2.65 2.56 2.37 2.02 1.64 1.47 1.35 1.20 1.22 1.16 1.07 1.10 1.23 1.15 1.06 1.00 0.95 0.92 0.90 0.91 0.97
1.82 1.81 1.89 1.68 1.59 1.51 1.45 1.45 1.27 1.17 1.26 1.24 1.21 1.24 1.34 1.60 2.01 2.10 2.10 2.13 1.92 1.64 1.36 1.36 1.27 1.40 1.31 1.09 1.03 1.09 1.13 1.19 1.18 1.13 1.07 1.08 1.12 1.00
1.61 1.56 1.61 1.63 1.43 1.26 1.25 1.23 1.16 1.17 1.21 1.15 1.07 1.05 1.16 1.30 1.48 1.76 1.90 1.88 1.79 1.51 1.32 1.45 1.34 1.37 1.36 1.15 1.03 1.02 1.03 1.05 1.10 1.18 1.23 1.22 1.22 1.13
1.63 1.65 1.69 1.72 1.47 1.31 1.16 1.05 1.07 1.03 1.01 1.06 1.02 0.98 1.03 1.12 1.33 1.60 1.86 1.91 1.80 1.66 1.65 1.68 1.57 1.48 1.46 1.30 1.13 1.04 1.05 1.09 1.14 1.16 1.21 1.40 1.38 1.35
1.63 1.92 1.93 1.86 1.65 1.37 1.26 1.25 1.14 1.00 1.00 1.02 0.99 0.95 0.98 1.11 1.36 1.66 1.89 2.06 1.99 1.81 1.74 1.69 1.65 1.65 1.68 1.47 1.28 1.19 1.21 1.19 1.14 1.15 1.20 1.24 1.28 1.35
1.56 1.82 1.95 1.96 1.85 1.66 1.56 1.45 1.22 1.12 1.17 1.16 1.16 1.20 1.29 1.41 1.55 1.68 1.86 2.01 2.06 1.89 1.78 1.74 1.75 1.85 1.81 1.65 1.56 1.41 1.33 1.30 1.28 1.34 1.39 1.37 1.34 1.30
1.67 1.88 2.02 2.12 2.13 2.05 1.94 1.83 1.68 1.50 1.37 1.32 1.38 1.39 1.43 1.51 1.56 1.70 1.91 2.00 1.94 1.73 1.70 1.77 1.86 1.96 1.98 1.90 1.68 1.38 1.31 1.26 1.24 1.36 1.42 1.37 1.29 1.25
1.62 1.74 1.97 2.15 2.21 2.29 2.31 2.20 1.98 1.78 1.63 1.60 1.56 1.53 1.57 1.58 1.62 1.77 1.98 2.08 1.94 1.77 1.69 1.71 1.90 2.05 2.03 1.88 1.61 1.40 1.28 1.21 1.16 1.24 1.29 1.28 1.16 1.07
1.47 1.58 1.68 1.79 1.96 2.17 2.27 2.24 2.03 1.91 1.93 1.89 1.80 1.76 1.78 1.79 1.80 1.90 2.08 2.18 2.12 1.96 1.87 1.86 1.94 1.98 1.85 1.49 1.22 1.16 1.19 1.16 1.20 1.21 1.19 1.17 1.11 1.05
1.23 1.38 1.53 1.66 1.82 2.08 2.23 2.25 2.18 2.10 2.11 2.14 2.10 2.05 2.03 1.98 1.90 1.86 1.99 2.11 2.14 2.10 2.03 1.93 1.83 1.82 1.79 1.61 1.45 1.29 1.22 1.27 1.31 1.33 1.29 1.27 1.26 1.30
1.18 1.22 1.28 1.44 1.62 1.86 2.09 2.25 2.24 2.14 2.07 2.11 2.10 2.02 2.01 2.02 1.92 1.84 1.90 2.07 2.15 2.12 1.97 1.75 1.66 1.86 2.05 2.17 1.93 1.52 1.35 1.37 1.45 1.47 1.50 1.57 1.48 1.41
1.27 1.28 1.37 1.50 1.65 1.86 2.06 2.16 2.18 2.15 2.09 2.08 2.05 1.99 1.96 1.94 1.80 1.74 1.76 1.84 1.89 1.94 1.93 1.91 2.07 2.22 2.24 2.20 1.90 1.60 1.51 1.54 1.64 1.72 1.68 1.59 1.48 1.36
1.39 1.39 1.43 1.51 1.67 1.86 2.00 2.11 2.13 2.14 2.15 2.11 2.05 1.97 1.93 1.93 1.88 1.84 1.80 1.83 1.84 1.87 2.03 2.12 2.13 2.21 2.18 2.13 2.05 1.92 1.81 1.76 1.76 1.74 1.58 1.48 1.37 1.28